[[{"header":{"parameterUnit":"m.s-1","parameterCategory":1,"la1":30.2991,"la2":30.254,"lo1":-89.0895,"lo2":-89.0444,"dy":0.0017,"dx":0.0017,"nx":28,"ny":28,"refTime":"2024-07-24T21:00:00:Z","depth":0,"parameterNumber":2,"parameterNumberName":"U-component_of_WINDS"},"data":[0,0,0,0,0,0,0,0,0,0,0,0,0,0,0,0,0,0,0,0,0,0,0,0,0,0,0,0,0,0,0,0,0,0,0,0,0,0,0,0,0,0,0,0,0,0,0,0,0,0,0,0,0,0,0,0,0,0,1.7151,1.7154,0,1.7365,1.7368,1.737,1.7431,1.743,1.7429,1.7428,1.7643,1.7649,1.7656,0,0,0,0,0,0,0,0,0,0,0,0,0,1.6791,1.6797,1.7151,1.7154,1.7157,1.7365,1.7368,1.7371,1.7431,1.743,1.7428,1.7427,1.764,1.7649,1.7657,0,0,0,0,0,0,0,0,0,0,0,0,0,1.697,1.68,1.7151,1.7212,1.722,1.7364,1.7368,1.7372,1.7431,1.743,1.7428,1.7426,1.7638,1.7648,1.7658,1.7756,0,0,1.7689,1.7693,0,0,0,0,0,0,0,0,1.696,1.6984,1.72,1.7208,1.7217,1.737,1.732,1.75,1.7432,1.7351,1.7427,1.7425,1.7553,1.757,1.7614,1.7766,1.7775,1.769,1.7696,1.7701,1.7703,0,0,0,0,0,0,0,1.6948,1.6975,1.7236,1.7203,1.7213,1.7227,1.7251,1.7354,1.7459,1.7358,1.7363,1.7387,1.7557,1.7604,1.7619,1.7778,1.769,1.7699,1.7705,1.7709,1.8022,1.8024,0,0,0,0,0,0,1.6925,1.6964,1.7229,1.7242,1.7082,1.7235,1.7262,1.7322,1.7458,1.7477,1.7389,1.7389,1.7587,1.7607,1.7627,1.7751,1.77,1.771,1.7716,1.802,1.8022,1.8025,0,0,0,0,0,0,1.6917,1.6948,1.722,1.7105,1.714,1.7243,1.7311,1.7327,1.7374,1.7482,1.75,1.7418,1.7587,1.7613,1.7724,1.776,1.7715,1.7724,1.8017,1.8021,1.8024,1.8,0,0,0,0,0,0,1.6907,1.6945,1.6984,1.7105,1.7146,1.7314,1.7313,1.7333,1.7392,1.7395,1.7514,1.7531,1.7587,1.7708,1.7734,1.7773,1.7732,1.8014,1.8019,1.8023,1.7998,1.8002,1.8005,0,0,0,0,0,1.6894,1.6968,1.6986,1.7018,1.7198,1.7316,1.734,1.7404,1.7395,1.7435,1.7504,1.7528,1.7752,1.7719,1.7749,1.7791,1.8012,1.8017,1.8022,1.7996,1.8001,1.8005,0,0,0,0,0,0,1.6847,1.6985,1.7006,1.7122,1.7207,1.7326,1.7378,1.7407,1.7495,1.7494,1.7569,1.7595,1.77,1.7757,1.7718,1.7893,1.7883,1.7893,1.7853,1.7858,1.7862,1.7846,1.774,0,0,0,0,0,1.6851,1.6937,1.7052,1.7143,1.7185,1.7274,1.7328,1.7371,1.7461,1.7497,1.7574,1.766,1.775,1.7807,1.7896,1.8006,1.8033,1.805,1.8054,1.8056,1.8065,1.8128,1.8137,1.8041,1.8041,1.8041,0,0,1.6858,1.6944,1.6994,1.7136,1.7207,1.7293,1.7304,1.7395,1.746,1.751,1.762,1.768,1.778,1.7892,1.7945,1.7942,1.8097,1.8063,1.8064,1.8071,1.8134,1.8143,1.8151,1.8044,1.8044,1.8043,0,0,1.6916,1.699,1.7075,1.7146,1.7254,1.7313,1.7332,1.7448,1.749,1.7602,1.7642,1.7719,1.7872,1.7942,1.7998,1.8083,1.8109,1.811,1.8129,1.819,1.8197,1.8204,1.8235,1.8245,1.8118,1.8118,1.8118,0,1.6912,1.7045,1.7114,1.7204,1.7265,1.7316,1.7402,1.7467,1.7597,1.7637,1.7633,1.7827,1.7898,1.8027,1.8048,1.8091,1.8116,1.8097,1.8191,1.8199,1.8206,1.8236,1.8247,1.8118,1.8118,1.8118,1.8118,0,1.7034,1.7126,1.7181,1.7307,1.7374,1.7461,1.7542,1.7602,1.7638,1.7697,1.781,1.7898,1.8005,1.8039,1.8075,1.8173,1.8168,1.8176,1.8167,1.8214,1.8243,1.8255,1.8117,1.8117,1.8117,1.8117,0,0,1.7068,1.7232,1.7251,1.7309,1.7432,1.7504,1.7593,1.7699,1.7749,1.7837,1.7913,1.8042,1.8051,1.8114,1.8158,1.8211,1.8273,1.8213,1.8217,1.8221,1.8387,1.8379,1.8391,1.8291,1.8294,1.8295,1.8378,0,1.7141,1.7304,1.7369,1.75,1.7585,1.7636,1.7713,1.7796,1.7854,1.7934,1.7997,1.8087,1.8092,1.8131,1.8186,1.8254,1.8307,1.8249,1.8361,1.8365,1.8334,1.8407,1.8399,1.8473,1.839,1.8392,1.8393,0,1.7249,1.734,1.748,1.7593,1.7631,1.77,1.7803,1.7879,1.7974,1.8012,1.8083,1.8125,1.8219,1.8204,1.8334,1.8293,1.8343,1.8383,1.8388,1.84,1.8381,1.8421,1.8498,1.8509,1.8412,1.8411,1.8409,0,1.7259,1.7416,1.7521,1.7569,1.7704,1.7751,1.7809,1.7902,1.7962,1.8052,1.8092,1.819,1.8244,1.8319,1.8386,1.8369,1.851,1.85,1.8544,1.8542,1.8571,1.8568,1.8657,1.8603,1.8603,1.8603,1.8602,0,1.7334,1.7417,1.7528,1.7592,1.7687,1.776,1.7852,1.7913,1.7996,1.8072,1.8121,1.8191,1.8276,1.8356,1.8409,1.8509,1.8533,1.8566,1.8579,1.8561,1.8557,1.8595,1.8591,1.8606,1.8605,1.8605,1.8604,0,1.7361,1.7438,1.7556,1.7674,1.7706,1.7771,1.7871,1.7935,1.7995,1.8091,1.8118,1.8212,1.831,1.8384,1.851,1.8546,1.8652,1.8665,1.862,1.8626,1.8665,1.866,1.8781,1.88,1.8734,1.8734,1.8735,0,1.7404,1.747,1.7596,1.7651,1.7709,1.7797,1.7859,1.7934,1.7996,1.811,1.816,1.8261,1.8346,1.85,1.8579,1.8676,1.8692,1.8728,1.8707,1.8687,1.8692,1.8687,1.8694,1.873,1.873,1.8731,1.8731,0,1.7471,1.7506,1.7594,1.7696,1.7769,1.7853,1.7937,1.7979,1.8068,1.8136,1.8237,1.8303,1.8433,1.8533,1.8638,1.8697,1.8729,1.8737,1.8752,1.8735,1.8706,1.8722,1.8627,1.8734,1.8733,1.8733,1.8733,1.8733,1.7507,1.7568,1.7667,1.7763,1.7835,1.7913,1.7979,1.8048,1.8134,1.8247,1.8285,1.8389,1.8483,1.8628,1.8688,1.877,1.877,1.8792,1.8798,1.8802,1.88,1.8693,1.8789,1.8789,1.8789,1.8789,1.8789,0,1.7576,1.7643,1.7731,1.7848,1.7924,1.7949,1.8044,1.8105,1.8197,1.8283,1.8366,1.8482,1.858,1.8667,1.8768,1.8817,1.8834,1.8841,1.8837,1.885,1.8794,1.8771,1.8825,1.8825,1.8825,1.8825,1.8825,1.8825,1.7621,1.7726,1.7773,1.7913,1.7979,1.8083,1.8135,1.8206,1.8275,1.8403,1.8485,1.8542,1.8628,1.8736,1.8826,1.8849,1.8884,1.8887,1.8913,1.8859,1.8854,1.885,1.8829,1.8894,1.8894,1.8963,1.8964,1.8964]},{"header":{"parameterUnit":"m.s-1","parameterCategory":1,"la1":30.2991,"la2":30.254,"lo1":-89.0895,"lo2":-89.0444,"dy":0.0017,"dx":0.0017,"nx":28,"ny":28,"refTime":"2024-07-24T21:00:00:Z","depth":0,"parameterNumber":3,"parameterNumberName":"V-component_of_WINDS"},"data":[0,0,0,0,0,0,0,0,0,0,0,0,0,0,0,0,0,0,0,0,0,0,0,0,0,0,0,0,0,0,0,0,0,0,0,0,0,0,0,0,0,0,0,0,0,0,0,0,0,0,0,0,0,0,0,0,0,0,2.0939,2.0939,0,2.0959,2.096,2.096,2.0921,2.092,2.0918,2.0917,2.0935,2.0937,2.0938,0,0,0,0,0,0,0,0,0,0,0,0,0,2.0863,2.0865,2.0939,2.0939,2.094,2.0959,2.096,2.096,2.0921,2.092,2.0918,2.0917,2.0934,2.0936,2.0938,0,0,0,0,0,0,0,0,0,0,0,0,0,2.0891,2.0865,2.0939,2.0923,2.0922,2.0959,2.096,2.096,2.0922,2.092,2.0918,2.0916,2.0934,2.0936,2.0939,2.0992,0,0,2.0946,2.0947,0,0,0,0,0,0,0,0,2.089,2.0894,2.0925,2.0924,2.0923,2.0936,2.0939,2.0971,2.0922,2.0921,2.0917,2.0915,2.0937,2.0939,2.0947,2.0993,2.0994,2.0946,2.0948,2.0949,2.095,0,0,0,0,0,0,0,2.0888,2.0893,2.0947,2.0925,2.0924,2.0913,2.0915,2.0945,2.0939,2.0921,2.0919,2.0922,2.0936,2.0944,2.0947,2.0994,2.0946,2.0949,2.095,2.0951,2.1084,2.1086,0,0,0,0,0,0,2.0888,2.0891,2.0946,2.0948,2.0901,2.0916,2.0918,2.0933,2.0939,2.0938,2.0923,2.092,2.0941,2.0944,2.0947,2.101,2.0949,2.0951,2.0953,2.1082,2.1085,2.1087,0,0,0,0,0,0,2.0887,2.0894,2.0946,2.0919,2.0925,2.092,2.0937,2.0935,2.0944,2.0941,2.0939,2.0934,2.094,2.0944,2.0981,2.101,2.0952,2.0955,2.108,2.1083,2.1086,2.1135,0,0,0,0,0,0,2.0885,2.0893,2.0914,2.092,2.0926,2.0981,2.0939,2.0937,2.0948,2.0944,2.095,2.0949,2.0938,2.0978,2.0984,2.1012,2.0957,2.1077,2.1081,2.1085,2.1131,2.114,2.1147,0,0,0,0,0,2.0882,2.0927,2.0916,2.0923,2.0953,2.0982,2.0986,2.0974,2.0951,2.0971,2.0969,2.0949,2.1006,2.0982,2.0988,2.1018,2.1075,2.108,2.1085,2.1127,2.1138,2.1147,0,0,0,0,0,0,2.0924,2.0927,2.0915,2.0963,2.0973,2.0976,2.1001,2.0986,2.1001,2.0996,2.098,2.0982,2.1022,2.1024,2.0997,2.1069,2.1037,2.1043,2.1067,2.1077,2.1085,2.1083,2.0959,0,0,0,0,0,2.0939,2.0964,2.0965,2.1007,2.1013,2.1007,2.1019,2.1009,2.1018,2.1022,2.1022,2.1031,2.105,2.1064,2.1082,2.1131,2.1131,2.1155,2.1163,2.1169,2.1174,2.1199,2.121,2.1102,2.1102,2.1102,0,0,2.097,2.0975,2.0992,2.1016,2.1022,2.1047,2.101,2.1038,2.1056,2.1025,2.1061,2.1062,2.107,2.1114,2.1133,2.1116,2.1204,2.1175,2.118,2.1182,2.1205,2.1215,2.1224,2.1105,2.1105,2.1104,0,0,2.1039,2.1046,2.1081,2.1089,2.1099,2.1095,2.1103,2.1109,2.1108,2.1144,2.1121,2.1142,2.1177,2.1183,2.1191,2.1263,2.1244,2.1269,2.131,2.1335,2.1343,2.1351,2.1375,2.1384,2.1274,2.1274,2.1274,0,2.1076,2.1114,2.1101,2.1131,2.1142,2.1116,2.1151,2.1159,2.1174,2.1182,2.1163,2.1206,2.121,2.1254,2.1272,2.1279,2.1288,2.1268,2.1343,2.1351,2.1357,2.138,2.139,2.1277,2.1277,2.1277,2.1276,0,2.1158,2.1184,2.1211,2.1228,2.1242,2.1274,2.1266,2.1281,2.127,2.1267,2.1303,2.1307,2.1325,2.1335,2.1324,2.1377,2.1367,2.1346,2.1313,2.1371,2.1392,2.1401,2.1281,2.128,2.128,2.1279,0,0,2.1253,2.1263,2.1273,2.128,2.1289,2.1309,2.1339,2.1358,2.1371,2.1383,2.1407,2.1437,2.1418,2.1427,2.1417,2.1439,2.1494,2.1415,2.1415,2.1429,2.1552,2.1566,2.1577,2.1482,2.1483,2.1485,2.1551,0,2.132,2.1374,2.1364,2.1416,2.1439,2.1416,2.1442,2.145,2.1448,2.1467,2.1464,2.1485,2.1459,2.1464,2.1485,2.1483,2.1518,2.1478,2.1503,2.1504,2.1501,2.1588,2.1604,2.1666,2.1559,2.156,2.1561,0,2.1406,2.1422,2.1477,2.1482,2.1491,2.1516,2.1531,2.155,2.1559,2.1555,2.1566,2.1551,2.158,2.1547,2.1586,2.1559,2.1569,2.1569,2.1571,2.1572,2.1535,2.1591,2.1686,2.1695,2.1575,2.1574,2.1573,0,2.1469,2.1504,2.1541,2.1547,2.1555,2.1572,2.1576,2.1583,2.1594,2.1608,2.1615,2.1632,2.1641,2.1654,2.1643,2.162,2.1684,2.165,2.1681,2.1681,2.1695,2.1694,2.1792,2.1703,2.1703,2.1702,2.1702,0,2.1545,2.1579,2.1569,2.1591,2.1628,2.1616,2.1653,2.1653,2.166,2.1681,2.1661,2.1682,2.1668,2.1686,2.1679,2.1712,2.1716,2.1713,2.1711,2.1715,2.1715,2.172,2.1715,2.1705,2.1704,2.1704,2.1703,0,2.1621,2.1616,2.1654,2.1659,2.166,2.1687,2.169,2.1711,2.1708,2.1735,2.174,2.1735,2.1756,2.1748,2.177,2.1764,2.1806,2.1799,2.1804,2.1801,2.1832,2.1829,2.1936,2.1949,2.1853,2.1854,2.1855,0,2.1669,2.1695,2.1702,2.1716,2.1721,2.1743,2.1755,2.1744,2.1757,2.1768,2.1787,2.1807,2.1822,2.1856,2.1854,2.187,2.1862,2.1898,2.1864,2.1867,2.1861,2.1859,2.1861,2.1905,2.1906,2.1907,2.1907,0,2.1755,2.1751,2.177,2.1788,2.1803,2.1816,2.1827,2.1839,2.1828,2.1844,2.1866,2.1878,2.1901,2.192,2.1935,2.1937,2.192,2.1918,2.1926,2.193,2.1932,2.193,2.1821,2.1916,2.1915,2.1914,2.1914,2.1913,2.1817,2.1839,2.1847,2.1869,2.1876,2.1887,2.1907,2.1906,2.1924,2.1943,2.1935,2.196,2.1967,2.1985,2.199,2.2009,2.1994,2.2006,2.2009,2.2012,2.2015,2.193,2.2012,2.2011,2.2011,2.2011,2.2011,0,2.1901,2.1905,2.1925,2.1942,2.1959,2.1943,2.1955,2.1969,2.1992,2.2,2.2016,2.204,2.2059,2.2058,2.2075,2.209,2.2083,2.2095,2.2093,2.2094,2.2028,2.2019,2.2101,2.2101,2.2101,2.2101,2.2101,2.2101,2.1946,2.1981,2.1979,2.2017,2.2021,2.2046,2.2054,2.2064,2.2071,2.21,2.2115,2.2115,2.2119,2.2137,2.2153,2.2152,2.2159,2.2173,2.217,2.2108,2.2099,2.209,2.2081,2.2175,2.2175,2.2234,2.2235,2.2235]}]]